TimePST,TemperatureF,Dew PointF,Humidity,Sea Level PressureIn,VisibilityMPH,Wind Direction,Wind SpeedMPH,Gust SpeedMPH,PrecipitationIn,Events,Conditions,WindDirDegrees,DateUTC
12:53 AM,24.1,14.0,65,30.32,10.0,East,3.5,-,N/A,,Clear,80,2014-01-26 08:53:00
1:53 AM,25.0,15.1,66,30.31,10.0,Calm,Calm,-,N/A,,Clear,0,2014-01-26 09:53:00
2:53 AM,23.0,14.0,68,30.32,10.0,Calm,Calm,-,N/A,,Clear,0,2014-01-26 10:53:00
3:53 AM,25.0,17.1,72,30.31,10.0,Calm,Calm,-,N/A,,Clear,0,2014-01-26 11:53:00
4:53 AM,21.9,15.1,75,30.31,10.0,Calm,Calm,-,N/A,,Clear,0,2014-01-26 12:53:00
5:53 AM,19.0,12.0,74,30.33,10.0,Calm,Calm,-,N/A,,Clear,0,2014-01-26 13:53:00
6:53 AM,19.9,12.0,71,30.34,10.0,ESE,3.5,-,N/A,,Clear,110,2014-01-26 14:53:00
7:53 AM,17.1,10.9,77,30.35,10.0,Calm,Calm,-,N/A,,Clear,0,2014-01-26 15:53:00
8:53 AM,28.0,19.9,72,30.35,10.0,Calm,Calm,-,N/A,,Clear,0,2014-01-26 16:53:00
9:53 AM,33.1,21.9,64,30.34,10.0,SSW,3.5,-,N/A,,Clear,210,2014-01-26 17:53:00
10:53 AM,42.1,23.0,47,30.31,10.0,Calm,Calm,-,N/A,,Clear,0,2014-01-26 18:53:00
11:53 AM,46.9,23.0,39,30.28,10.0,SSW,3.5,-,N/A,,Clear,200,2014-01-26 19:53:00
12:53 PM,51.1,21.9,32,30.23,10.0,Calm,Calm,-,N/A,,Clear,0,2014-01-26 20:53:00
1:53 PM,54.0,21.9,29,30.18,10.0,Calm,Calm,-,N/A,,Clear,0,2014-01-26 21:53:00
2:53 PM,55.9,19.9,25,30.17,10.0,Calm,Calm,-,N/A,,Clear,0,2014-01-26 22:53:00
3:53 PM,57.0,19.9,24,30.16,10.0,SSW,4.6,-,N/A,,Clear,200,2014-01-26 23:53:00
4:53 PM,54.0,21.0,28,30.17,10.0,SSW,4.6,-,N/A,,Clear,210,2014-01-27 00:53:00
5:53 PM,42.1,17.1,37,30.19,10.0,ESE,6.9,-,N/A,,Clear,110,2014-01-27 01:53:00
6:53 PM,39.0,19.0,45,30.19,10.0,Calm,Calm,-,N/A,,Clear,0,2014-01-27 02:53:00
7:53 PM,36.0,17.1,46,30.21,10.0,Calm,Calm,-,N/A,,Clear,0,2014-01-27 03:53:00
8:53 PM,30.0,15.1,54,30.22,10.0,Calm,Calm,-,N/A,,Clear,0,2014-01-27 04:53:00
9:53 PM,30.9,18.0,59,30.23,10.0,NNE,4.6,-,N/A,,Clear,20,2014-01-27 05:53:00
10:53 PM,28.0,15.1,58,30.23,10.0,Calm,Calm,-,N/A,,Clear,0,2014-01-27 06:53:00
11:53 PM,26.1,15.1,63,30.23,10.0,North,3.5,-,N/A,,Clear,10,2014-01-27 07:53:00